Date String (YYYY-MM-DD hh:mm:ss) UTC,Instrument flags,Ambient pressure (hPa),Sample flow (lpm),Bypass flow (lpm),Sample temperature (°C),Ambient temperature (°C),ASC tube jacket temperature (°C),LED temperature (°C),Box temperature (°C),Sample RH (%),Span deviation,Mass concentration (μg/m³),Mass concentration (μg/m³),Mass concentration (μg/m³)
DateTimeUTC,F1_M11,P_M11,Q1_M11,Q2_M11,T1_M11,T2_M11,T3_M11,T4_M11,T5_M11,U1_M11,ZSPAN_M11,X0_M11,X2_M11,X1_M11
2022-12-18 14:00:00,,0819.7,4.99,0.00,22.1,20.7,00.0,30.9,23.8,05.8,0000.0,0010.69,0004.33,0003.56
2022-12-18 14:01:00,,0819.7,4.98,0.00,22.1,20.6,00.0,30.9,23.8,05.7,0000.0,0010.46,0004.30,0003.53
2022-12-18 14:02:00,,0819.7,5.02,0.00,22.0,20.5,00.0,30.9,23.8,05.8,0000.0,0010.49,0004.31,0003.52
2022-12-18 14:03:00,,0819.8,5.02,0.00,22.0,20.4,00.0,30.9,23.7,05.8,0000.0,0011.14,0004.36,0003.55
2022-12-18 14:04:00,,0819.8,4.96,0.00,22.0,20.5,00.0,30.9,23.7,06.0,0000.0,0011.57,0004.43,0003.60
2022-12-18 14:05:00,,0819.7,5.02,0.00,22.0,21.4,00.0,30.8,23.9,06.0,0000.0,0011.99,0004.43,0003.61
2022-12-18 14:06:00,,0819.6,4.97,0.00,22.1,22.1,00.0,30.8,24.1,06.0,0000.0,0012.36,0004.42,0003.60
2022-12-18 14:07:00,,0819.6,5.05,0.00,22.2,21.7,00.0,30.9,24.0,06.0,0000.0,0012.56,0004.47,0003.62
2022-12-18 14:08:00,,0819.7,4.99,0.00,22.1,21.3,00.0,30.9,23.9,06.0,0000.0,0012.93,0004.48,0003.64
2022-12-18 14:09:00,,0819.7,5.00,0.00,22.1,20.9,00.0,30.9,23.8,06.1,0000.0,0013.28,0004.52,0003.66
2022-12-18 14:10:00,,0819.6,5.05,0.00,22.1,20.5,00.0,30.9,23.7,06.1,0000.0,0012.69,0004.52,0003.68
2022-12-18 14:11:00,,0819.6,4.96,0.00,22.0,20.4,00.0,30.9,23.6,06.1,0000.0,0012.60,0004.52,0003.71
2022-12-18 14:12:00,,0819.5,5.00,0.00,22.0,20.3,00.0,30.9,23.6,06.1,0000.0,0012.56,0004.52,0003.74
2022-12-18 14:13:00,,0819.4,5.03,0.00,22.0,20.3,00.0,30.9,23.6,06.0,0000.0,0012.62,0004.56,0003.78
2022-12-18 14:14:00,,0819.4,5.00,0.00,21.9,20.3,00.0,30.9,23.6,05.9,0000.0,0012.18,0004.54,0003.78
2022-12-18 14:15:00,,0819.6,5.00,0.00,22.0,20.8,00.0,30.8,23.7,05.9,0000.0,0012.16,0004.51,0003.76
2022-12-18 14:16:00,,0819.5,5.03,0.00,22.1,21.9,00.0,30.8,24.0,06.0,0000.0,0011.83,0004.52,0003.76
2022-12-18 14:17:00,,0819.6,4.97,0.00,22.2,22.2,00.0,30.8,24.1,05.9,0000.0,0011.37,0004.54,0003.76
2022-12-18 14:18:00,,0819.7,4.97,0.00,22.1,21.6,00.0,30.9,24.0,05.9,0000.0,0010.39,0004.49,0003.73
2022-12-18 14:19:00,,0819.6,5.02,0.00,22.1,21.0,00.0,30.9,23.8,06.0,0000.0,0010.06,0004.49,0003.71
2022-12-18 14:20:00,,0819.6,5.03,0.00,22.0,20.7,00.0,30.9,23.7,06.1,0000.0,0009.72,0004.46,0003.70
2022-12-18 14:21:00,,0819.6,4.96,0.00,22.0,20.5,00.0,30.9,23.7,06.0,0000.0,0009.59,0004.46,0003.68
2022-12-18 14:22:00,,0819.5,5.03,0.00,22.0,20.3,00.0,30.9,23.6,06.1,0000.0,0009.66,0004.49,0003.67
2022-12-18 14:23:00,,0819.5,5.01,0.00,21.9,20.2,00.0,30.9,23.6,06.1,0000.0,0009.82,0004.51,0003.66
2022-12-18 14:24:00,,0819.5,4.98,0.00,21.9,20.1,00.0,30.8,23.5,06.1,0000.0,0009.73,0004.47,0003.65
2022-12-18 14:25:00,,0819.5,4.98,0.00,21.9,20.1,00.0,30.8,23.5,06.1,0000.0,0009.55,0004.47,0003.65
2022-12-18 14:26:00,,0819.6,5.03,0.00,21.9,21.1,00.0,30.8,23.7,06.1,0000.0,0009.72,0004.53,0003.67
2022-12-18 14:27:00,,0819.7,4.98,0.00,22.0,22.0,00.0,30.8,24.0,06.0,-000.2,0009.94,0004.53,0003.66
2022-12-18 14:28:00,,0819.7,5.02,0.00,22.1,22.0,00.0,30.8,24.0,06.0,-000.2,0009.89,0004.49,0003.65
2022-12-18 14:29:00,,0819.7,4.96,0.00,22.1,21.5,00.0,30.8,23.9,06.0,0000.0,0010.06,0004.49,0003.65
2022-12-18 14:30:00,,0819.6,5.03,0.00,22.1,21.1,00.0,30.9,23.8,05.9,0000.0,0009.91,0004.44,0003.64
2022-12-18 14:31:00,,0819.7,4.95,0.00,22.0,20.9,00.0,30.9,23.8,05.7,0000.0,0009.90,0004.42,0003.62
2022-12-18 14:32:00,,0819.7,5.03,0.00,22.0,20.7,00.0,30.9,23.7,05.7,0000.2,0010.05,0004.42,0003.59
2022-12-18 14:33:00,,0819.6,5.02,0.00,22.0,20.5,00.0,30.9,23.7,05.8,0002.0,0009.94,0004.41,0003.56
2022-12-18 14:34:00,,0819.5,4.96,0.00,21.9,20.3,00.0,30.9,23.6,05.8,0001.3,0009.98,0004.36,0003.54
2022-12-18 14:35:00,,0819.5,5.03,0.00,21.9,20.2,00.0,30.8,23.5,05.6,0002.6,0009.98,0004.31,0003.49
2022-12-18 14:36:00,,0819.4,5.03,0.00,21.8,20.1,00.0,30.8,23.5,05.6,0001.8,0009.94,0004.25,0003.43
2022-12-18 14:37:00,,0819.3,4.95,0.00,21.9,20.8,00.0,30.8,23.7,05.6,0000.0,0009.50,0004.15,0003.36
2022-12-18 14:38:00,,0819.3,5.05,0.00,22.0,21.9,00.0,30.8,23.9,05.5,0000.0,0009.10,0004.10,0003.31
2022-12-18 14:39:00,,0819.4,4.97,0.00,22.1,22.2,00.0,30.8,24.0,05.5,0000.0,0009.03,0004.04,0003.26
2022-12-18 14:40:00,,0819.6,5.03,0.00,22.1,21.8,00.0,30.8,24.0,05.5,0000.0,0008.73,0003.99,0003.22
2022-12-18 14:41:00,,0819.5,4.96,0.00,22.1,21.3,00.0,30.9,23.9,05.5,0000.0,0008.87,0003.95,0003.19
2022-12-18 14:42:00,,0819.4,5.03,0.00,22.1,21.0,00.0,30.9,23.8,05.5,0000.0,0009.48,0003.95,0003.16
2022-12-18 14:43:00,,0819.4,4.98,0.00,22.0,20.8,00.0,30.9,23.8,05.5,0000.0,0009.82,0003.92,0003.14
2022-12-18 14:44:00,,0819.4,5.00,0.00,22.0,20.7,00.0,30.9,23.8,05.5,0000.0,0009.66,0003.87,0003.11
2022-12-18 14:45:00,,0819.7,5.02,0.00,22.0,20.6,00.0,30.9,23.7,05.5,0000.0,0009.23,0003.81,0003.05
2022-12-18 14:46:00,,0819.7,4.97,0.00,22.0,20.4,00.0,30.9,23.7,05.6,0000.0,0009.23,0003.78,0003.04
2022-12-18 14:47:00,,0819.6,5.00,0.00,22.0,20.3,00.0,30.9,23.6,05.8,0000.0,0009.73,0003.79,0003.08
2022-12-18 14:48:00,,0819.6,5.03,0.00,21.9,20.4,00.0,30.8,23.6,05.7,0000.0,0009.73,0003.79,0003.11
2022-12-18 14:49:00,,0819.6,4.96,0.00,22.0,21.3,00.0,30.8,23.8,05.6,0000.0,0009.68,0003.77,0003.12
2022-12-18 14:50:00,,0819.6,5.04,0.00,22.1,22.3,00.0,30.8,24.1,05.6,0000.0,0009.79,0003.80,0003.14
2022-12-18 14:51:00,,0819.6,4.97,0.00,22.2,22.2,00.0,30.9,24.1,05.5,0000.0,0009.94,0003.83,0003.17
2022-12-18 14:52:00,,0819.7,5.04,0.00,22.2,21.8,00.0,30.9,24.1,05.6,0000.0,0010.40,0003.88,0003.20
2022-12-18 14:53:00,,0819.7,4.96,0.00,22.2,21.5,00.0,30.9,24.0,05.6,0000.0,0009.85,0003.86,0003.22
2022-12-18 14:54:00,,0819.6,5.03,0.00,22.2,21.2,00.0,30.9,23.9,05.5,0000.0,0009.02,0003.81,0003.23
2022-12-18 14:55:00,,0819.7,4.96,0.00,22.2,21.0,00.0,30.9,23.9,05.6,0000.0,0008.92,0003.83,0003.25
2022-12-18 14:56:00,,0819.7,5.03,0.00,22.1,20.8,00.0,30.9,23.9,05.6,0000.0,0009.30,0003.94,0003.29
2022-12-18 14:57:00,,0819.8,4.98,0.00,22.1,20.7,00.0,30.9,23.8,05.7,0000.0,0009.35,0004.01,0003.31
2022-12-18 14:58:00,,0819.9,5.00,0.00,22.1,20.7,00.0,30.9,23.8,05.8,0000.0,0008.60,0004.01,0003.32
2022-12-18 14:59:00,,0819.9,5.04,0.00,22.1,20.6,00.0,30.9,23.8,05.9,0000.0,0008.65,0004.03,0003.34
